Погода в Выксе

Погода в Выксе : погода сейчас, прогноз погоды и архив. Всё, что Вы хотите узнать о погоде в Выксе!

Хотите узнать прогноз погоды в Выксе? Тогда Вам сюда: Погода в Выксе

Поиск расширенной информации на нашем сайте:

Другие новости

Новости СМИ2

Главная страница сайта

Новости сайта

03.07.2017

Напоминаем, что на нашем специализированном сайте Метеоцентр.Азия вы можете получить высокодетализированные автоматические прогнозы погоды по пунктам России, СНГ и мира в авиационном формате (включающие направление и скорость ветра, видимость, явления погоды, количество и форму облачности, нижнюю и верхнюю границу облачности).


Погода в Выксе - сегодня

Время (UTC), дата Ветер
(°,м/с) 
Видим.   Явления Облачность Т
(°С)
Тd
(°С)
f(%) Тe
(°С)
Pmin
(гПа)
dP
(гПа)
Po
(мм)
O2
(г/м3)
Тmin Tmax R s Состояние
почвы
15 04.11.18 280 (З) 4-7{09}  10 км    8/8 600 м 
[Sc]
+6.7 +3.6 81 +5  1024.5  2.5  758  298    +9.4  0.8     
03 05.11.18 300 (СЗ) 2-4{06}  10 км    10/0 средняя 
[As op]
+4.3 +1.5 82 +4  1029.8  762  302  +4.2         
15 05.11.18 300 (СЗ) 2-3{05}  10 км    10/10 480 м 
[Sc]
+4.1 +0.4 77 +4  1032.5  764  303    +5.4       
15 06.11.18 200 (Ю) 2-4{04}  10 км    9/9 300 м 
[Sc]
+2.3 -0.2 84 +2  1028.6  -1.2  761  304    +4.1       
18 07.11.18 160 (Ю) 2-5{06}  10 км    ясно 
+1 -1.3 85 1023.7  -2.4  757  304           
03 08.11.18 290 (З) 2-5{05}  10 км  слаб. дождь  10/0 средняя 
[As op]
+2.2 +1.4 94 +2  1023.5  757  302  +0.7    0.0     
15 08.11.18 330 (СЗ) 1-2{04}  10 км    10/10 420 м 
[Sc]
+2 +0.4 89 +3  1024.5  0.5  758  303    +2.6  0.0     
03 09.11.18 100 (В) 2-3{03}  10 км    10/10 400 м 
[Sc]
+0.7 -0.1 94 1025.1  -0.2  758  305  +0.6    0.9     
15 09.11.18 070 (В) 2-2{04}  10 км    9/0 средняя 
[Ac trans]
+2.2 +1.2 93 +2  1026.2  759  303    +2.8       
03 10.11.18 090 (В) 3-4{05}  10 км    10/0 средняя 
[As op]
+1.9 +1.6 98 1028.5  761  304  +1.7         
15 10.11.18 120 (ЮВ) 5-6{08}  10 км  {снег}  10/10 450 м 
[Sc]
+0.2 -0.7 94 -3  1033.1  1.2  764  308    +1.9  0.0     
21 10.11.18 090 (В) 4-8{10}  10 км    ясно 
-4.6 -11.2 60 -8  1040.1  2.9  769  316           
09 11.11.18 110 (В) 3-5{07}  10 км    ясно 
-4.2 -14.3 45 -6  1048.1  2.2  775  318           
18 11.11.18 100 (В) 2-4{05}  10 км    ясно 
-7.3 -13.7 60 -9  1051.3  0.2  777  323           
21 11.11.18 110 (В) 1-3{04}  10 км    ясно 
-9 -14 67 -9  1050.8  -0.5  777  325           
09 12.11.18 140 (ЮВ) 2-5{06}  10 км    ясно 
-4.7 -12.9 53 -6  1050.7  777  320           
18 12.11.18 140 (ЮВ) 2-4{04}  10 км    ясно 
-9 -14 67 -11  1049.8  -0.5  776  325           
21 12.11.18 160 (Ю) 2-4{05}  10 км    ясно 
-9.6 -14.2 69 -11  1049.6  -0.3  776  325           
06 13.11.18 150 (ЮВ) 2-4{04}  10 км    ясно 
-11.2 -14.7 75 -13  1047.1  -1  774  326           
09 13.11.18 170 (Ю) 3-5{07}  10 км    ясно 
-5.2 -13.2 53 -8  1046.3  -0.6  773  319           
18 13.11.18 150 (ЮВ) 2-4{06}  10 км    ясно 
-8 -14.8 58 -10  1041.1  -2  770  321           
21 13.11.18 140 (ЮВ) 2-3{05}  10 км    ясно 
-9.7 -14.3 69 -11  1040.2  -1  769  322           
06 15.11.18 140 (ЮВ) 2-5{05}  10 км    ясно 
-7.8 -13.9 62 -9  1039.2  3.1  768  320           
09 15.11.18 150 (ЮВ) 2-4{05}  10 км    ясно 
-2.9 -13.1 45 -4  1040  769  314           
18 15.11.18 140 (ЮВ) 1-3{03}  10 км    ясно 
-7.8 -13.3 65 -8  1042.5  1.1  771  321           
Время (UTC), дата Ветер
(°,м/с) 
Видим.   Явления Облачность Т
(°С)
Тd
(°С)
f(%) Тe
(°С)
Pmin
(гПа)
dP
(гПа)
Po
(мм)
O2
(г/м3)
Тmin Tmax R s Состояние
почвы

Для получения пояснительной информации подведите курсор к названию столбца.

ПОГОДА в Выксе - архив

Всё, что Вы хотите узнать о погоде в Выксе - удобно и подробно!

Выберите нужную дату (начиная с 1 января 2015* года) и нажмите кнопку "Найти".
Будут отображены архивные сводки погоды по пункту Выкса, начиная с указанной даты.


Отображать данные в формате CSV (для использования в таблицах Excel)


Внимание! Наш архив погоды предназначен исключительно для личного некоммерческого использования в познавательных целях. Если Вам необходимы официальные справки о состоянии погоды (для производственных, юридических, коммерческих и т.п. целей), обращайтесь в органы Росгидромета.

*Примечание: данная дата относится к архиву по метеостанциям СССР (Россия, СНГ, Балтия).
Архив по метеостанциям Зарубежной Европы и Азии (кроме Китая) хранится 10 дней, по другим регионам земного шара (Китай, Африка, Америка, Австралия, Океания) - 1 день.

Выкса - район местоположения метеостанции


Название, широта, долгота, высота метеостанции:
Выкса 55.3°ш. 42.1°д. 114 м над ур. моря [Российская Федерация]

Дополнительная информация

В oтличие oт бoльшинства пoгoдных сайтoв мы публикуем пoдрoбную метеoинфoрмацию в детальнoм прoфессиoнальнoм фoрмате.

Характеристики температуры и влажнoсти вoздуха измеряются на высoте 2 м в тени вдали oт зданий и деревьев.
Скoрoсть ветра измеряется на высoте 10 м (на урoвне рoста челoвека скoрoсть ветра ниже в 1.5-2 раза). Если метеoстанция нахoдится в гoрoде или в лесу, тo скoрoсть ветра занижена на 2-4 м/с пo сравнению с oткрытым местoм. Скoрoсть ветра над акватoриями крупных рек и oзёр, а также на вершинах хoлмoв на 2-5 м/с выше, чем в oбычных услoвиях.
Атмoсфернoе давление в разных тoчках местнoсти мoжет значительнo oтличаться oт давления на метеoстанции, в зависимoсти oт услoвий рельефа (при пoдъёме на 10 м давление пoнижается примернo на 1 мм рт.ст.).